Total_Precipitation_Accumulation
0.00 0.00 0.00 0.00 0.01 0.04 0.13 0.14 0.06 0.03 0.18 0.24 0.21 0.12 0.02 0.01 0.00 0.00 0.00 0.00 0.00 0.00 0.00 0.00 0.01 0.02 0.01 0.00 0.00 0.00 0.01 0.10 0.11 0.01 0.00 0.00 0.00 0.00 0.01 0.06 0.17 0.08 0.09 0.04
0.00 0.00 0.00 0.00 0.01 0.06 0.12 0.13 0.08 0.10 0.30 0.11 0.14 0.07 0.03 0.02 0.01 0.00 0.00 0.00 0.00 0.00 0.00 0.00 0.01 0.00 0.00 0.00 0.00 0.02 0.03 0.16 0.22 0.06 0.00 0.01 0.01 0.01 0.03 0.07 0.19 0.26 0.22 0.12
0.00 0.00 0.01 0.01 0.01 0.06 0.13 0.19 0.16 0.18 0.31 0.09 0.05 0.06 0.05 0.04 0.01 0.00 0.00 0.00 0.00 0.00 0.00 0.00 0.00 0.00 0.00 0.00 0.00 0.00 0.04 0.20 0.24 0.29 0.06 0.03 0.04 0.01 0.01 0.03 0.19 0.23 0.15 0.08
0.00 0.00 0.00 0.01 0.01 0.06 0.14 0.24 0.23 0.13 0.18 0.18 0.05 0.05 0.05 0.03 0.02 0.01 0.01 0.02 0.00 0.00 0.01 0.00 0.00 0.00 0.00 0.00 0.00 0.01 0.04 0.06 0.04 0.04 0.03 0.02 0.02 0.03 0.02 0.01 0.02 0.08 0.08 0.01
0.00 0.00 0.01 0.00 0.01 0.07 0.14 0.20 0.13 0.11 0.06 0.06 0.07 0.07 0.05 0.04 0.01 0.02 0.01 0.02 0.00 0.01 0.04 0.02 0.00 0.01 0.00 0.01 0.00 0.02 0.06 0.23 0.18 0.10 0.01 0.00 0.01 0.00 0.01 0.00 0.01 0.02 0.04 0.04
0.00 0.00 0.01 0.01 0.01 0.09 0.10 0.09 0.08 0.09 0.08 0.08 0.12 0.08 0.02 0.01 0.02 0.01 0.00 0.01 0.05 0.06 0.01 0.01 0.01 0.02 0.02 0.04 0.08 0.10 0.11 0.19 0.25 0.27 0.08 0.09 0.07 0.00 0.00 0.00 0.00 0.01 0.02 0.03
0.00 0.01 0.01 0.02 0.01 0.06 0.09 0.11 0.12 0.14 0.16 0.08 0.03 0.01 0.03 0.02 0.01 0.02 0.01 0.01 0.07 0.02 0.00 0.04 0.04 0.04 0.03 0.03 0.04 0.15 0.35 0.33 0.41 0.34 0.08 0.14 0.08 0.00 0.00 0.00 0.00 0.00 0.00 0.00
0.01 0.01 0.01 0.02 0.03 0.08 0.21 0.13 0.23 0.20 0.14 0.04 0.02 0.00 0.00 0.01 0.03 0.04 0.02 0.01 0.03 0.03 0.14 0.31 0.47 0.19 0.08 0.03 0.04 0.05 0.10 0.34 0.55 0.45 0.24 0.12 0.02 0.00 0.00 0.00 0.00 0.00 0.00 0.00
0.01 0.01 0.01 0.02 0.03 0.07 0.22 0.28 0.25 0.32 0.37 0.13 0.01 0.01 0.01 0.02 0.03 0.03 0.01 0.00 0.00 0.10 0.28 0.48 0.64 0.36 0.17 0.07 0.01 0.01 0.02 0.12 0.43 0.48 0.44 0.21 0.02 0.00 0.00 0.00 0.06 0.01 0.00 0.00
0.00 0.00 0.01 0.01 0.02 0.04 0.18 0.34 0.24 0.45 0.69 0.28 0.03 0.02 0.02 0.01 0.04 0.05 0.01 0.01 0.05 0.15 0.28 0.59 0.57 0.36 0.16 0.14 0.04 0.01 0.06 0.19 0.36 0.31 0.36 0.19 0.01 0.00 0.01 0.07 0.14 0.00 0.00 0.01
0.00 0.00 0.01 0.01 0.03 0.05 0.16 0.37 0.34 0.42 0.62 0.28 0.03 0.01 0.01 0.03 0.06 0.08 0.04 0.14 0.14 0.16 0.25 0.22 0.16 0.17 0.07 0.05 0.01 0.01 0.04 0.10 0.18 0.23 0.27 0.16 0.01 0.01 0.03 0.04 0.01 0.00 0.02 0.03
0.00 0.00 0.00 0.00 0.01 0.04 0.22 0.65 0.34 0.40 0.87 0.70 0.11 0.01 0.00 0.00 0.01 0.03 0.09 0.12 0.15 0.17 0.18 0.13 0.10 0.08 0.07 0.06 0.05 0.02 0.05 0.09 0.09 0.11 0.08 0.01 0.00 0.00 0.00 0.01 0.02 0.03 0.04 0.01
0.00 0.00 0.00 0.00 0.00 0.02 0.14 0.31 0.34 0.80 1.40 1.12 0.42 0.09 0.01 0.00 0.01 0.03 0.27 0.35 0.10 0.16 0.12 0.17 0.22 0.22 0.09 0.07 0.04 0.04 0.03 0.05 0.16 0.16 0.05 0.00 0.00 0.00 0.00 0.00 0.04 0.09 0.13 0.14
0.00 0.00 0.00 0.00 0.03 0.06 0.08 0.20 0.30 0.54 1.06 0.84 0.37 0.03 0.01 0.01 0.02 0.05 0.17 0.25 0.12 0.19 0.31 0.66 0.76 0.41 0.12 0.05 0.03 0.04 0.02 0.05 0.14 0.18 0.08 0.02 0.02 0.01 0.00 0.00 0.01 0.01 0.05 0.09
0.02 0.02 0.01 0.03 0.07 0.08 0.07 0.11 0.17 0.26 0.61 0.67 0.16 0.03 0.02 0.02 0.05 0.06 0.06 0.12 0.20 0.32 0.62 0.87 0.65 0.32 0.23 0.18 0.13 0.07 0.04 0.11 0.10 0.05 0.02 0.03 0.06 0.06 0.06 0.04 0.01 0.00 0.01 0.01
0.05 0.04 0.03 0.08 0.08 0.09 0.23 0.51 0.28 0.27 0.45 0.72 0.44 0.10 0.02 0.03 0.07 0.11 0.11 0.11 0.26 0.47 0.71 0.50 0.24 0.10 0.18 0.30 0.14 0.02 0.00 0.00 0.02 0.05 0.03 0.04 0.06 0.06 0.05 0.03 0.03 0.02 0.01 0.01
0.07 0.08 0.09 0.09 0.17 0.25 0.32 0.23 0.08 0.07 0.33 0.73 0.36 0.08 0.02 0.03 0.05 0.06 0.12 0.21 0.49 0.67 0.66 0.44 0.28 0.20 0.37 0.53 0.18 0.00 0.02 0.04 0.08 0.08 0.06 0.10 0.08 0.09 0.09 0.11 0.05 0.03 0.03 0.04
0.13 0.20 0.20 0.13 0.14 0.22 0.25 0.12 0.05 0.07 0.38 0.57 0.29 0.04 0.02 0.01 0.01 0.04 0.03 0.08 0.20 0.28 0.23 0.19 0.10 0.06 0.11 0.11 0.01 0.00 0.01 0.05 0.09 0.18 0.16 0.13 0.11 0.11 0.11 0.13 0.16 0.12 0.05 0.02
0.28 0.40 0.48 0.48 0.28 0.17 0.06 0.02 0.06 0.13 0.30 0.31 0.13 0.02 0.02 0.02 0.03 0.02 0.02 0.06 0.13 0.09 0.06 0.02 0.05 0.09 0.09 0.01 0.00 0.00 0.00 0.01 0.02 0.03 0.09 0.09 0.07 0.10 0.08 0.07 0.09 0.21 0.17 0.06
0.45 0.68 1.01 0.73 0.22 0.12 0.06 0.10 0.16 0.24 0.24 0.23 0.06 0.06 0.01 0.02 0.02 0.04 0.04 0.05 0.10 0.16 0.04 0.03 0.07 0.02 0.00 0.00 0.00 0.00 0.02 0.04 0.06 0.06 0.04 0.03 0.03 0.04 0.06 0.06 0.07 0.09 0.11 0.13
0.59 0.69 0.69 0.27 0.28 0.57 0.46 0.27 0.22 0.15 0.07 0.03 0.02 0.03 0.00 0.00 0.01 0.03 0.04 0.06 0.06 0.09 0.07 0.09 0.05 0.01 0.01 0.05 0.05 0.01 0.01 0.02 0.04 0.04 0.05 0.12 0.11 0.06 0.05 0.05 0.05 0.06 0.07 0.09
0.46 0.46 0.47 0.61 0.80 0.88 0.66 0.27 0.08 0.03 0.02 0.00 0.01 0.01 0.01 0.01 0.01 0.05 0.02 0.03 0.04 0.05 0.04 0.09 0.03 0.03 0.02 0.00 0.00 0.00 0.00 0.00 0.01 0.02 0.06 0.10 0.12 0.12 0.11 0.12 0.13 0.11 0.14 0.22
0.34 0.36 0.41 0.49 0.54 0.56 0.30 0.12 0.02 0.01 0.01 0.00 0.00 0.01 0.01 0.01 0.02 0.04 0.02 0.02 0.03 0.03 0.06 0.03 0.03 0.02 0.00 0.00 0.00 0.00 0.00 0.00 0.00 0.00 0.04 0.09 0.20 0.21 0.28 0.39 0.31 0.28 0.37 0.47
0.40 0.32 0.23 0.22 0.21 0.08 0.03 0.01 0.00 0.00 0.00 0.00 0.01 0.01 0.02 0.02 0.02 0.03 0.02 0.02 0.02 0.02 0.02 0.03 0.02 0.00 0.00 0.00 0.01 0.01 0.03 0.02 0.02 0.02 0.06 0.12 0.20 0.35 0.46 0.48 0.42 0.38 0.36 0.33
0.26 0.24 0.20 0.04 0.03 0.01 0.01 0.00 0.00 0.00 0.00 0.00 0.01 0.01 0.02 0.02 0.03 0.02 0.03 0.03 0.02 0.02 0.04 0.03 0.00 0.00 0.00 0.00 0.01 0.02 0.04 0.11 0.13 0.11 0.14 0.20 0.25 0.29 0.38 0.40 0.38 0.31 0.30 0.29
0.17 0.14 0.11 0.05 0.02 0.03 0.02 0.00 0.00 0.00 0.00 0.01 0.02 0.03 0.05 0.04 0.03 0.03 0.02 0.02 0.04 0.05 0.01 0.00 0.00 0.00 0.00 0.01 0.02 0.04 0.23 0.35 0.34 0.32 0.30 0.26 0.24 0.23 0.25 0.24 0.23 0.27 0.25 0.25
0.11 0.03 0.02 0.02 0.03 0.02 0.02 0.01 0.01 0.00 0.01 0.02 0.02 0.02 0.02 0.02 0.03 0.02 0.02 0.03 0.03 0.00 0.00 0.00 0.00 0.01 0.04 0.16 0.28 0.27 0.24 0.33 0.45 0.45 0.34 0.30 0.25 0.15 0.10 0.22 0.19 0.09 0.04 0.02